Tracking 18840 objects as of 17-November-2017
HD Live streaming from Space Station
objects crossing your sky now

DMSP 5D-3 F18 DEB

Track DMSP 5D-3 F18 DEB now!
10-day predictions


NORAD ID: 35953
Int'l Code: 2009-057C
Perigee: 836.5 km
Apogee: 843.5 km
Inclination: 98.6 °
Period: 101.6 minutes
Semi major axis: 7210 km
RCS: 0.056 m2 (small)
Launch date: October 18, 2009
Source: United States (US)
Launch site: AIR FORCE WESTERN TEST RANGE (AFWTR)

Note: This is SATELLITE DEBRIS
aabbcc
Your satellite tracking list
Your tracking list is empty




NASA's NSSDC Master Catalog

Two Line Element Set (TLE):
1 35953U 09057C   17321.08290275  .00000398  00000-0  21603-3 0  9998
2 35953  98.6379 351.3550 0004805 174.2523 244.2409 14.17782402417432
Source of the keplerian elements: AFSPC